This is the latest recevied weather packets stored in our database for station/object AB1AU. If no packets are shown the sender has not sent any weather packets the latest 10 day(s).
| Time | Temp. | Humidity | Pressure | Rain* | Wind** | Luminosity | Snow |
|---|---|---|---|---|---|---|---|
| 1777579745 | 7.78° C | 95% | 1008.3 hPa | 6.1 mm | - | 33 W/m² | - |
| 1777579444 | 7.78° C | 95% | 1008.2 hPa | 4.83 mm | - | 20 W/m² | - |
| 1777579139 | 7.78° C | 95% | 1008.4 hPa | 4.83 mm | - | 16 W/m² | - |
| 1777578838 | 7.78° C | 95% | 1008.5 hPa | 3.05 mm | - | 23 W/m² | - |
| 1777578535 | 7.78° C | 95% | 1008.3 hPa | 3.05 mm | - | 27 W/m² | - |
| 1777578229 | 7.78° C | 95% | 1008.2 hPa | 4.32 mm | - | 30 W/m² | - |
| 1777577925 | 7.78° C | 94% | 1008.3 hPa | 4.32 mm | - | 37 W/m² | - |
| 1777577621 | 7.78° C | 95% | 1008.3 hPa | 4.83 mm | - | 28 W/m² | - |
| 1777577318 | 7.78° C | 95% | 1008.6 hPa | 4.83 mm | - | 27 W/m² | - |
| 1777577014 | 7.78° C | 94% | 1008.7 hPa | 3.05 mm | - | 28 W/m² | - |
| 1777576712 | 7.78° C | 95% | 1008.5 hPa | 3.05 mm | - | 40 W/m² | - |
| 1777576410 | 7.78° C | 94% | 1008.7 hPa | 1.78 mm | - | 56 W/m² | - |
| 1777576107 | 7.78° C | 94% | 1008.9 hPa | 1.78 mm | - | 41 W/m² | - |
| 1777575802 | 7.78° C | 94% | 1008.8 hPa | 1.78 mm | - | 32 W/m² | - |
| 1777575500 | 7.78° C | 94% | 1008.8 hPa | 0 mm | - | 34 W/m² | - |
| 1777575195 | 7.78° C | 94% | 1008.9 hPa | 0 mm | - | 43 W/m² | - |
| 1777574891 | 7.78° C | 94% | 1008.9 hPa | 0 mm | - | 52 W/m² | - |
| 1777574589 | 7.78° C | 94% | 1008.8 hPa | 0 mm | - | 65 W/m² | - |
| 1777574285 | 7.78° C | 94% | 1008.8 hPa | 1.27 mm | - | 56 W/m² | - |
| 1777573980 | 7.78° C | 94% | 1008.9 hPa | 3.05 mm | - | 34 W/m² | - |
| 1777573675 | 7.78° C | 94% | 1008.8 hPa | 3.05 mm | - | 23 W/m² | - |
| 1777573372 | 7.78° C | 94% | 1009.2 hPa | 3.05 mm | - | 22 W/m² | - |
| 1777573068 | 7.78° C | 94% | 1008.9 hPa | 1.78 mm | - | 37 W/m² | - |
| 1777572765 | 7.78° C | 94% | 1008.9 hPa | 0 mm | - | 59 W/m² | - |
| 1777572465 | 8.33° C | 94% | 1009.3 hPa | 0 mm | - | 76 W/m² | - |
* Rain latest hour (hover to see other rain measurements)
** Current wind speed in m/s (hover to see current wind gust speed)